DG5TKE Weather Reports


time (UTC)temp
C
wind
direction
speed
KPH
gust
KPH
rain 1hr
cm
rain 24hr
cm
rain mn
cm
humidity
%
barometer
mb
20260831220007 13 179 1.6 9.7 0.00 1.32 0.00 87 1014.6
20260831215217 13 185 1.6 6.4 0.00 1.32 1.32 87 1014.4
20260831214003 13 198 6.4 14.5 0.00 1.32 1.32 87 1014.2
20260831213006 13 200 6.4 14.5 0.00 1.32 1.32 87 1014.0
20260831212003 13 196 6.4 11.3 0.00 1.32 1.32 87 1013.8
20260831211006 13 204 4.8 9.7 0.00 1.32 1.32 87 1013.8
20260831210003 13 213 1.6 11.3 0.00 1.32 1.32 87 1013.6
20260831205003 13 154 3.2 6.4 0.00 1.32 1.32 87 1013.5
20260831204221 13 193 4.8 9.7 0.00 1.32 1.32 87 1013.3
20260831203218 13 199 8.0 17.7 0.00 1.32 1.32 86 1013.2
20260831202003 14 203 8.0 19.3 0.03 1.32 1.32 86 1013.1
20260831201003 14 206 8.0 17.7 0.05 1.32 1.32 86 1013.0
20260831200006 14 199 8.0 19.3 0.18 1.32 1.32 86 1012.9
20260831195006 14 197 4.8 22.5 0.18 1.32 1.32 85 1012.7
20260831194003 15 195 3.2 12.9 0.18 1.32 1.32 84 1012.7
20260831193006 15 210 6.4 14.5 0.18 1.32 1.32 82 1013.1
20260831192006 16 199 9.7 14.5 0.15 1.30 1.30 81 1013.0
20260831191006 17 206 12.9 25.7 0.13 1.27 1.27 77 1012.9
20260831190004 18 225 8.0 30.6 0.00 1.14 1.14 72 1012.9
20260831185008 18 212 6.4 14.5 0.00 1.14 1.14 72 1011.7
20260831184003 18 210 3.2 12.9 0.00 1.14 1.14 72 1011.6
20260831183006 18 206 3.2 11.3 0.00 1.14 1.14 71 1011.4
20260831182221 18 228 3.2 14.5 0.00 1.14 1.14 71 1011.5
20260831181222 18 215 1.6 9.7 0.00 1.14 1.14 71 1011.3
20260831180006 18 208 4.8 11.3 0.00 1.14 1.14 70 1011.3
20260831175006 18 219 3.2 12.9 0.00 1.14 1.14 70 1011.3
20260831174222 18 224 3.2 6.4 0.00 1.14 1.14 71 1011.3
20260831173006 18 211 3.2 11.3 0.00 1.14 1.14 72 1011.1
20260831172006 18 216 3.2 6.4 0.00 1.14 1.14 73 1011.1
20260831171221 18 205 4.8 8.0 0.00 1.14 1.14 72 1011.0
20260831170217 19 210 11.3 14.5 0.00 1.14 1.14 71 1011.1
20260831165003 20 218 11.3 29.0 0.00 1.14 1.14 68 1011.2
20260831164006 21 208 11.3 27.4 0.00 1.14 1.14 62 1011.0
20260831163008 21 211 11.3 29.0 0.00 1.14 1.14 61 1010.9
20260831162006 21 208 11.3 24.1 0.00 1.14 1.14 60 1010.5
20260831161006 22 210 14.5 41.8 0.00 1.14 1.14 59 1010.5
20260831160221 22 218 14.5 35.4 0.00 1.14 1.14 58 1010.3
20260831155006 22 208 12.9 25.7 0.00 1.14 1.14 58 1010.2
20260831154003 22 197 11.3 29.0 0.00 1.14 1.14 58 1010.1
20260831153220 22 207 12.9 29.0 0.00 1.14 1.14 59 1010.1
20260831152003 22 208 14.5 29.0 0.00 1.14 1.14 58 1010.1
20260831151006 22 188 14.5 29.0 0.00 1.14 1.14 59 1009.9
20260831150220 22 193 14.5 37.0 0.00 1.14 1.14 57 1010.1
20260831145006 23 194 11.3 27.4 0.00 1.14 1.14 56 1009.9
20260831144003 23 204 12.9 24.1 0.00 1.14 1.14 56 1010.0
20260831143003 23 203 16.1 30.6 0.00 1.14 1.14 56 1010.2
20260831142006 23 204 16.1 35.4 0.00 1.14 1.14 56 1010.3
20260831141006 23 207 16.1 35.4 0.00 1.14 1.14 55 1010.4
20260831140006 23 214 12.9 33.8 0.00 1.14 1.14 54 1010.3
20260831135006 22 220 11.3 27.4 0.00 1.14 1.14 58 1010.4
20260831134220 23 222 12.9 22.5 0.00 1.14 1.14 57 1010.5
20260831133006 23 224 12.9 32.2 0.00 1.14 1.14 56 1010.4
20260831132006 23 211 11.3 27.4 0.00 1.14 1.14 58 1010.5
20260831131217 23 206 12.9 24.1 0.00 1.14 1.14 59 1010.5
20260831130222 22 232 14.5 24.1 0.00 1.14 1.14 60 1010.6
20260831125003 22 228 14.5 30.6 0.00 1.14 1.14 59 1010.7
20260831124006 22 230 16.1 33.8 0.00 1.14 1.14 59 1010.6
20260831123007 23 231 9.7 29.0 0.00 1.14 1.14 58 1010.6
20260831122003 22 218 12.9 25.7 0.00 1.14 1.14 61 1010.6
20260831121003 22 214 12.9 29.0 0.00 1.14 1.14 59 1010.7
20260831120006 22 228 16.1 32.2 0.00 1.14 1.14 61 1010.6
20260831115003 22 214 11.3 30.6 0.00 1.14 1.14 58 1010.6
20260831114003 22 239 11.3 25.7 0.00 1.14 1.14 61 1010.8
20260831113003 22 219 11.3 32.2 0.00 1.14 1.14 61 1010.8
20260831112223 22 218 11.3 33.8 0.00 1.14 1.14 62 1010.9
20260831111003 22 216 12.9 29.0 0.00 1.14 1.14 63 1010.8
20260831110006 22 222 11.3 30.6 0.00 1.14 1.14 65 1010.9
20260831105003 22 208 11.3 27.4 0.00 1.14 1.14 65 1010.9
20260831104006 21 195 9.7 27.4 0.00 1.14 1.14 69 1010.8
20260831103006 21 214 8.0 27.4 0.00 1.14 1.14 71 1010.9
20260831102006 21 207 9.7 20.9 0.00 1.14 1.14 74 1010.8
20260831101003 20 233 9.7 27.4 0.00 1.14 1.14 74 1010.9
20260831100220 20 220 8.0 27.4 0.00 1.14 1.14 76 1010.9
20260831095006 20 243 6.4 24.1 0.00 1.14 1.14 79 1010.9
20260831094006 20 237 8.0 17.7 0.00 1.14 1.14 81 1010.8
20260831093220 20 218 8.0 20.9 0.00 1.14 1.14 84 1010.9
20260831092008 19 224 8.0 24.1 0.00 1.14 1.14 89 1010.7
20260831091003 18 204 6.4 19.3 0.00 1.14 1.14 93 1010.6
20260831090003 17 211 4.8 19.3 0.00 1.14 1.14 94 1010.7
20260831085003 17 208 1.6 12.9 0.00 1.14 1.14 95 1010.7
20260831084003 17 165 1.6 8.0 0.00 1.14 1.14 95 1010.6
20260831083003 16 123 1.6 3.2 0.00 1.14 1.14 95 1010.5
20260831082003 16 165 3.2 6.4 0.00 1.14 1.14 95 1010.5
20260831081003 16 167 1.6 8.0 0.00 1.14 1.14 94 1010.5
20260831080005 16 161 3.2 9.7 0.00 1.14 1.14 94 1010.5
20260831075003 16 138 3.2 9.7 0.00 1.14 1.14 94 1010.5
20260831074003 16 122 3.2 8.0 0.00 1.14 1.14 94 1010.4
20260831073005 16 135 3.2 9.7 0.03 1.14 1.14 94 1010.3
20260831072217 15 158 3.2 8.0 0.05 1.14 1.14 94 1010.3
20260831071003 15 158 3.2 11.3 0.05 1.14 1.14 94 1010.3
20260831070005 15 149 3.2 11.3 0.10 1.14 1.14 94 1010.3
20260831065003 15 141 3.2 11.3 0.13 1.14 1.14 94 1010.3
20260831064003 15 133 3.2 11.3 0.15 1.14 1.14 94 1010.3
20260831063005 15 137 1.6 4.8 0.20 1.12 1.12 93 1010.4
20260831062219 15 147 3.2 6.4 0.25 1.09 1.12 93 1010.4
20260831061003 15 163 3.2 8.0 0.36 1.09 1.09 93 1010.4
20260831060005 15 160 3.2 9.7 0.61 1.04 1.04 93 1010.3
20260831055005 15 161 3.2 9.7 0.76 1.02 1.02 93 1010.1
20260831054005 15 161 3.2 8.0 0.81 0.99 0.99 92 1010.1
20260831053005 15 192 4.8 12.9 0.76 0.91 0.91 92 1010.3
20260831052006 15 192 3.2 9.7 0.69 0.84 0.84 92 1010.2
20260831051003 15 135 3.2 12.9 0.58 0.74 0.74 91 1009.7
20260831050008 15 249 3.2 9.7 0.30 0.43 0.43 91 1010.0
20260831045003 15 280 3.2 11.3 0.13 0.25 0.25 91 1010.1
20260831044006 15 0 0.0 6.4 0.05 0.15 0.15 90 1009.9
20260831043003 15 0 0.0 0.0 0.08 0.15 0.15 89 1009.6
20260831042003 15 214 0.0 3.2 0.13 0.15 0.15 88 1009.6
20260831041003 15 30 1.6 4.8 0.15 0.15 0.15 88 1009.9
20260831040006 16 13 0.0 4.8 0.15 0.15 0.15 87 1010.1
20260831035006 16 141 1.6 3.2 0.15 0.15 0.15 87 1010.2
20260831034003 16 110 1.6 4.8 0.13 0.13 0.13 86 1010.4
20260831033218 16 186 1.6 6.4 0.08 0.08 0.08 85 1010.4
20260831032003 16 231 4.8 9.7 0.05 0.05 0.05 84 1010.3
20260831031006 15 271 0.0 16.1 0.03 0.03 0.03 83 1010.0
20260831030006 15 205 3.2 4.8 0.00 0.00 0.00 82 1009.4
20260831025003 15 215 3.2 8.0 0.00 0.00 0.00 83 1009.2
20260831024218 15 207 3.2 8.0 0.00 0.00 0.00 83 1009.1
20260831023003 15 216 3.2 6.4 0.00 0.00 0.00 83 1009.0
20260831022006 15 197 1.6 8.0 0.00 0.00 0.00 83 1009.4
20260831021006 15 0 0.0 0.0 0.00 0.00 0.00 83 1009.6
20260831020217 15 0 0.0 0.0 0.00 0.00 0.00 82 1009.6
20260831015003 15 0 0.0 3.2 0.00 0.00 0.00 82 1009.5
20260831014003 15 0 1.6 0.0 0.00 0.00 0.00 82 1009.4
20260831013217 15 200 1.6 8.0 0.00 0.00 0.00 82 1009.6
20260831012003 15 221 0.0 4.8 0.00 0.00 0.00 82 1009.8
20260831011003 15 213 1.6 4.8 0.00 0.00 0.00 82 1009.7
20260831010006 15 224 1.6 6.4 0.00 0.00 0.00 82 1009.9
20260831005006 15 225 1.6 4.8 0.00 0.00 0.00 82 1010.1
20260831004221 15 223 3.2 8.0 0.00 0.00 0.00 82 1010.1
20260831003217 15 221 1.6 4.8 0.00 0.00 0.00 81 1010.2
20260831002006 15 0 0.0 0.0 0.00 0.00 0.00 81 1010.3
20260831001217 15 0 0.0 0.0 0.00 0.00 0.00 80 1010.3
20260831000003 15 0 0.0 0.0 0.00 0.00 0.00 80 1010.4
20260830235003 16 219 1.6 4.8 0.00 0.00 0.00 80 1010.5
20260830234006 16 204 1.6 4.8 0.00 0.00 0.00 80 1010.6
20260830233007 16 192 0.0 6.4 0.00 0.00 0.00 80 1010.7
20260830232218 16 0 0.0 0.0 0.00 0.00 0.00 79 1010.8
20260830231006 16 0 0.0 0.0 0.00 0.00 0.00 79 1010.9
20260830230003 16 0 0.0 0.0 0.00 0.00 0.00 79 1010.8
20260830225003 16 0 0.0 0.0 0.00 0.00 0.00 79 1010.8
20260830224003 16 0 0.0 0.0 0.00 0.00 0.00 79 1010.8
20260830223006 16 0 0.0 0.0 0.00 0.00 0.00 79 1010.8
20260830222006 16 0 0.0 0.0 0.00 0.00 0.00 79 1010.9
20260830221003 16 0 0.0 0.0 0.00 0.00 0.00 78 1010.9